This demonstration page uses our WeatherBlox Daily Observations layout. Learn more.

Left ArrowRight Arrow

39.92423, -83.80882

Hourly Observations for June 14, 2021

Temp ( °F °C ) Dew Point ( °F °C ) Humidity (%) Winds ( mph kmh ) Pressure ( in mb ) Visibility ( mi km ) Precip ( " mm )
12:56 am 00:56 Clear 65 18.3 59 15 81 81 ESE 5 7 29.92 1013 10 16 N/A
1:56 am 01:56 Clear 64 17.8 61 16.1 90 90 N N/A 29.90 1013 10 16 N/A
2:56 am 02:56 Clear 62 16.7 61 16.1 96 96 N N/A 29.90 1012 10 16 N/A
3:56 am 03:56 Clear 61 16.1 61 16.1 100 100 W 5 7 29.91 1013 10 16 N/A
4:56 am 04:56 Clear 61 16.1 61 16.1 100 100 SW 3 6 29.90 1013 10 16 N/A
5:56 am 05:56 Clear 59 15 N/A N/A N N/A 29.89 1012 10 16 N/A
6:56 am 06:56 Sunny 61 16 N/A N/A S 3 6 29.88 1012 10 16 N/A
7:56 am 07:56 Sunny 66 18.9 62 16.7 87 87 SW 3 6 29.89 1012 10 16 N/A
8:56 am 08:56 Mostly Sunny 72 22.2 62 16.7 71 71 W 5 7 29.90 1012 10 16 N/A
9:56 am 09:56 Mostly Cloudy 76 24.4 60 15.6 58 58 WSW 10 17 29.89 1012 10 16 N/A
10:56 am 10:56 Sunny 80 26.7 58 14.4 47 47 SW 10 17 29.86 1011 10 16 N/A
11:56 am 11:56 Partly Cloudy 82 27.8 60 15.6 47 47 WSW 14 22 29.85 1011 10 16 N/A
12:56 pm 12:56 Mostly Sunny 86 30 61 16.1 43 43 W 20 31 29.83 1010 10 16 N/A
1:56 pm 13:56 Partly Cloudy 87 30.6 61 16.1 42 42 W 21 33 29.82 1010 10 16 N/A
2:56 pm 14:56 Sunny 86 30 58 14.4 39 39 WNW 17 28 29.82 1010 10 16 N/A
3:56 pm 15:56 Mostly Sunny 84 28.9 60 15.6 44 44 NNW 17 28 29.83 1010 10 16 N/A
4:56 pm 16:56 Sunny 82 27.8 59 15 46 46 NNW 20 31 29.83 1010 10 16 N/A
5:56 pm 17:56 Sunny 81 27.2 59 15 47 47 N 14 22 29.84 1011 10 16 N/A
6:56 pm 18:56 Sunny 79 26.1 55 12.8 44 44 N 10 17 29.84 1011 10 16 N/A
7:56 pm 19:56 Partly Cloudy 76 24.4 57 13.9 52 52 N 7 11 29.85 1011 10 16 N/A
8:56 pm 20:56 Sunny 72 22.2 56 13.3 57 57 NNW 8 13 29.86 1011 10 16 N/A
9:56 pm 21:56 Clear 70 21.1 55 12.8 59 59 NW 8 13 29.88 1012 10 16 N/A
10:56 pm 22:56 Mostly Clear 66 18.9 57 13.9 73 73 N 16 26 29.93 1013 10 16 N/A
11:56 pm 23:56 Clear 63 17.2 57 13.9 81 81 N 9 15 29.94 1014 10 16 N/A

Powered by AerisWeather